Location: Dammartin
(48.9032°N, 1.6195°E)
Time: 13:39:52
(UTC+00:00)

Gblst 52 Del rocket - Pass Details

Date: 03 February 2023
Orbit: 805 x 1364 km, 51.5° (Epoch: 29 March)

Event Time Altitude Azimuth Distance (km) Brightness Sun altitude
Rises 18:36:15 0° 250° (WSW) 3,422 8.9 -17.0°
Reaches altitude 10° 18:38:48 10° 251° (WSW) 2,442 7.8 -17.4°
Maximum altitude 18:44:25 87° 339° (NNW) 814 4.1 -18.3°
Enters shadow 18:47:00 33° 69° (ENE) 1,331 4.7 -18.8°
